<?xml version="1.0" encoding="UTF-8" standalone="no" ?>
<gpx xmlns="http://www.topografix.com/GPX/1/1" xmlns:xsi="http://www.w3.org/2001/XMLSchema-instance" xsi:schemaLocation="http://www.topografix.com/GPX/1/1 http://www.topografix.com/GPX/1/1/gpx.xsd" version="1.1" creator="VisuGPX - https://www.visugpx.com">
  <metadata>
    <name>22_km_rando</name>
  </metadata>
  <trk>
    <name><![CDATA[22 km rando 2026-23051182]]></name>
    <extensions>
      <line xmlns="http://www.topografix.com/GPX/gpx_style/0/2">
        <color>0000FF</color>
        <width>4</width>
      </line>
    </extensions>
    <trkseg>
      <trkpt lat="45.999" lon="4.17639">
        <ele>435</ele>
        <time>2026-02-01T12:04:28Z</time>
      </trkpt>
      <trkpt lat="45.9985" lon="4.1761">
        <ele>436</ele>
        <time>2026-02-01T12:05:40Z</time>
      </trkpt>
      <trkpt lat="45.99824" lon="4.1759">
        <ele>436</ele>
        <time>2026-02-01T12:06:19Z</time>
      </trkpt>
      <trkpt lat="45.99792" lon="4.17569">
        <ele>436</ele>
        <time>2026-02-01T12:07:06Z</time>
      </trkpt>
      <trkpt lat="45.9972" lon="4.1753">
        <ele>435</ele>
        <time>2026-02-01T12:08:49Z</time>
      </trkpt>
      <trkpt lat="45.99608" lon="4.17473">
        <ele>429</ele>
        <time>2026-02-01T12:11:27Z</time>
      </trkpt>
      <trkpt lat="45.99598" lon="4.17466">
        <ele>428</ele>
        <time>2026-02-01T12:11:42Z</time>
      </trkpt>
      <trkpt lat="45.99595" lon="4.17464">
        <ele>428</ele>
        <time>2026-02-01T12:11:47Z</time>
      </trkpt>
      <trkpt lat="45.99584" lon="4.17451">
        <ele>428</ele>
        <time>2026-02-01T12:12:06Z</time>
      </trkpt>
      <trkpt lat="45.99575" lon="4.17434">
        <ele>427</ele>
        <time>2026-02-01T12:12:25Z</time>
      </trkpt>
      <trkpt lat="45.99554" lon="4.17374">
        <ele>427</ele>
        <time>2026-02-01T12:13:28Z</time>
      </trkpt>
      <trkpt lat="45.99543" lon="4.17342">
        <ele>427</ele>
        <time>2026-02-01T12:14:01Z</time>
      </trkpt>
      <trkpt lat="45.99536" lon="4.17324">
        <ele>427</ele>
        <time>2026-02-01T12:14:20Z</time>
      </trkpt>
      <trkpt lat="45.99528" lon="4.17324">
        <ele>426</ele>
        <time>2026-02-01T12:14:31Z</time>
      </trkpt>
      <trkpt lat="45.99508" lon="4.17303">
        <ele>425</ele>
        <time>2026-02-01T12:15:04Z</time>
      </trkpt>
      <trkpt lat="45.9947" lon="4.17264">
        <ele>421</ele>
        <time>2026-02-01T12:16:06Z</time>
      </trkpt>
      <trkpt lat="45.99445" lon="4.17238">
        <ele>418</ele>
        <time>2026-02-01T12:16:47Z</time>
      </trkpt>
      <trkpt lat="45.99436" lon="4.17227">
        <ele>417</ele>
        <time>2026-02-01T12:17:03Z</time>
      </trkpt>
      <trkpt lat="45.99408" lon="4.17178">
        <ele>416</ele>
        <time>2026-02-01T12:18:02Z</time>
      </trkpt>
      <trkpt lat="45.9932" lon="4.17028">
        <ele>411</ele>
        <time>2026-02-01T12:21:04Z</time>
      </trkpt>
      <trkpt lat="45.99315" lon="4.17012">
        <ele>412</ele>
        <time>2026-02-01T12:21:20Z</time>
      </trkpt>
      <trkpt lat="45.99303" lon="4.16902">
        <ele>411</ele>
        <time>2026-02-01T12:23:03Z</time>
      </trkpt>
      <trkpt lat="45.99302" lon="4.16899">
        <ele>411</ele>
        <time>2026-02-01T12:23:06Z</time>
      </trkpt>
      <trkpt lat="45.99301" lon="4.16883">
        <ele>410</ele>
        <time>2026-02-01T12:23:21Z</time>
      </trkpt>
      <trkpt lat="45.99282" lon="4.16762">
        <ele>405</ele>
        <time>2026-02-01T12:25:16Z</time>
      </trkpt>
      <trkpt lat="45.99257" lon="4.16591">
        <ele>397</ele>
        <time>2026-02-01T12:27:58Z</time>
      </trkpt>
      <trkpt lat="45.99251" lon="4.16562">
        <ele>396</ele>
        <time>2026-02-01T12:28:26Z</time>
      </trkpt>
      <trkpt lat="45.99239" lon="4.16536">
        <ele>395</ele>
        <time>2026-02-01T12:28:55Z</time>
      </trkpt>
      <trkpt lat="45.99223" lon="4.16512">
        <ele>394</ele>
        <time>2026-02-01T12:29:26Z</time>
      </trkpt>
      <trkpt lat="45.99203" lon="4.16496">
        <ele>393</ele>
        <time>2026-02-01T12:29:57Z</time>
      </trkpt>
      <trkpt lat="45.99194" lon="4.16492">
        <ele>393</ele>
        <time>2026-02-01T12:30:09Z</time>
      </trkpt>
      <trkpt lat="45.99204" lon="4.1649">
        <ele>393</ele>
        <time>2026-02-01T12:30:23Z</time>
      </trkpt>
      <trkpt lat="45.99264" lon="4.16499">
        <ele>393</ele>
        <time>2026-02-01T12:31:43Z</time>
      </trkpt>
      <trkpt lat="45.99305" lon="4.1652">
        <ele>393</ele>
        <time>2026-02-01T12:32:41Z</time>
      </trkpt>
      <trkpt lat="45.99336" lon="4.16543">
        <ele>394</ele>
        <time>2026-02-01T12:33:28Z</time>
      </trkpt>
      <trkpt lat="45.99373" lon="4.16555">
        <ele>397</ele>
        <time>2026-02-01T12:34:18Z</time>
      </trkpt>
      <trkpt lat="45.99415" lon="4.16539">
        <ele>398</ele>
        <time>2026-02-01T12:35:16Z</time>
      </trkpt>
      <trkpt lat="45.99455" lon="4.16511">
        <ele>398</ele>
        <time>2026-02-01T12:36:16Z</time>
      </trkpt>
      <trkpt lat="45.99471" lon="4.16508">
        <ele>398</ele>
        <time>2026-02-01T12:36:37Z</time>
      </trkpt>
      <trkpt lat="45.99492" lon="4.16507">
        <ele>399</ele>
        <time>2026-02-01T12:37:05Z</time>
      </trkpt>
      <trkpt lat="45.99501" lon="4.16507">
        <ele>400</ele>
        <time>2026-02-01T12:37:17Z</time>
      </trkpt>
      <trkpt lat="45.99502" lon="4.165">
        <ele>399</ele>
        <time>2026-02-01T12:37:24Z</time>
      </trkpt>
      <trkpt lat="45.99516" lon="4.16499">
        <ele>399</ele>
        <time>2026-02-01T12:37:43Z</time>
      </trkpt>
      <trkpt lat="45.99538" lon="4.1649">
        <ele>399</ele>
        <time>2026-02-01T12:38:13Z</time>
      </trkpt>
      <trkpt lat="45.99554" lon="4.16481">
        <ele>400</ele>
        <time>2026-02-01T12:38:36Z</time>
      </trkpt>
      <trkpt lat="45.9957" lon="4.1647">
        <ele>400</ele>
        <time>2026-02-01T12:39:00Z</time>
      </trkpt>
      <trkpt lat="45.9965" lon="4.16416">
        <ele>396</ele>
        <time>2026-02-01T12:40:58Z</time>
      </trkpt>
      <trkpt lat="45.99725" lon="4.16397">
        <ele>392</ele>
        <time>2026-02-01T12:42:39Z</time>
      </trkpt>
      <trkpt lat="45.99759" lon="4.16388">
        <ele>390</ele>
        <time>2026-02-01T12:43:25Z</time>
      </trkpt>
      <trkpt lat="45.99789" lon="4.16438">
        <ele>393</ele>
        <time>2026-02-01T12:44:27Z</time>
      </trkpt>
      <trkpt lat="45.99838" lon="4.16453">
        <ele>394</ele>
        <time>2026-02-01T12:45:33Z</time>
      </trkpt>
      <trkpt lat="45.99868" lon="4.16429">
        <ele>399</ele>
        <time>2026-02-01T12:46:19Z</time>
      </trkpt>
      <trkpt lat="45.99884" lon="4.16358">
        <ele>399</ele>
        <time>2026-02-01T12:47:28Z</time>
      </trkpt>
      <trkpt lat="45.99904" lon="4.16281">
        <ele>404</ele>
        <time>2026-02-01T12:48:45Z</time>
      </trkpt>
      <trkpt lat="45.99927" lon="4.16251">
        <ele>411</ele>
        <time>2026-02-01T12:49:26Z</time>
      </trkpt>
      <trkpt lat="45.99951" lon="4.16191">
        <ele>414</ele>
        <time>2026-02-01T12:50:30Z</time>
      </trkpt>
      <trkpt lat="45.99976" lon="4.1615">
        <ele>417</ele>
        <time>2026-02-01T12:51:21Z</time>
      </trkpt>
      <trkpt lat="46.00002" lon="4.1609">
        <ele>418</ele>
        <time>2026-02-01T12:52:26Z</time>
      </trkpt>
      <trkpt lat="46.00007" lon="4.16087">
        <ele>418</ele>
        <time>2026-02-01T12:52:34Z</time>
      </trkpt>
      <trkpt lat="46.00022" lon="4.16037">
        <ele>418</ele>
        <time>2026-02-01T12:53:24Z</time>
      </trkpt>
      <trkpt lat="46.00031" lon="4.15987">
        <ele>417</ele>
        <time>2026-02-01T12:54:12Z</time>
      </trkpt>
      <trkpt lat="46.0004" lon="4.15938">
        <ele>418</ele>
        <time>2026-02-01T12:54:59Z</time>
      </trkpt>
      <trkpt lat="46.00044" lon="4.15908">
        <ele>417</ele>
        <time>2026-02-01T12:55:27Z</time>
      </trkpt>
      <trkpt lat="46.0005" lon="4.15878">
        <ele>416</ele>
        <time>2026-02-01T12:55:56Z</time>
      </trkpt>
      <trkpt lat="46.00062" lon="4.15838">
        <ele>415</ele>
        <time>2026-02-01T12:56:37Z</time>
      </trkpt>
      <trkpt lat="46.00077" lon="4.158">
        <ele>414</ele>
        <time>2026-02-01T12:57:17Z</time>
      </trkpt>
      <trkpt lat="46.00129" lon="4.15709">
        <ele>413</ele>
        <time>2026-02-01T12:59:06Z</time>
      </trkpt>
      <trkpt lat="46.00176" lon="4.15715">
        <ele>416</ele>
        <time>2026-02-01T13:00:09Z</time>
      </trkpt>
      <trkpt lat="46.0019" lon="4.15715">
        <ele>418</ele>
        <time>2026-02-01T13:00:28Z</time>
      </trkpt>
      <trkpt lat="46.0025" lon="4.15704">
        <ele>422</ele>
        <time>2026-02-01T13:01:49Z</time>
      </trkpt>
      <trkpt lat="46.00275" lon="4.15703">
        <ele>422</ele>
        <time>2026-02-01T13:02:22Z</time>
      </trkpt>
      <trkpt lat="46.00293" lon="4.15705">
        <ele>422</ele>
        <time>2026-02-01T13:02:46Z</time>
      </trkpt>
      <trkpt lat="46.00355" lon="4.1573">
        <ele>424</ele>
        <time>2026-02-01T13:04:12Z</time>
      </trkpt>
      <trkpt lat="46.00368" lon="4.15735">
        <ele>425</ele>
        <time>2026-02-01T13:04:30Z</time>
      </trkpt>
      <trkpt lat="46.0041" lon="4.15734">
        <ele>427</ele>
        <time>2026-02-01T13:05:26Z</time>
      </trkpt>
      <trkpt lat="46.00419" lon="4.15734">
        <ele>427</ele>
        <time>2026-02-01T13:05:38Z</time>
      </trkpt>
      <trkpt lat="46.00424" lon="4.15736">
        <ele>427</ele>
        <time>2026-02-01T13:05:45Z</time>
      </trkpt>
      <trkpt lat="46.0044" lon="4.15746">
        <ele>427</ele>
        <time>2026-02-01T13:06:08Z</time>
      </trkpt>
      <trkpt lat="46.00477" lon="4.15784">
        <ele>423</ele>
        <time>2026-02-01T13:07:09Z</time>
      </trkpt>
      <trkpt lat="46.00504" lon="4.15806">
        <ele>421</ele>
        <time>2026-02-01T13:07:50Z</time>
      </trkpt>
      <trkpt lat="46.00511" lon="4.15815">
        <ele>421</ele>
        <time>2026-02-01T13:08:03Z</time>
      </trkpt>
      <trkpt lat="46.00559" lon="4.15882">
        <ele>421</ele>
        <time>2026-02-01T13:09:32Z</time>
      </trkpt>
      <trkpt lat="46.00565" lon="4.15885">
        <ele>421</ele>
        <time>2026-02-01T13:09:41Z</time>
      </trkpt>
      <trkpt lat="46.00589" lon="4.15894">
        <ele>422</ele>
        <time>2026-02-01T13:10:14Z</time>
      </trkpt>
      <trkpt lat="46.00634" lon="4.15934">
        <ele>422</ele>
        <time>2026-02-01T13:11:24Z</time>
      </trkpt>
      <trkpt lat="46.00652" lon="4.15944">
        <ele>422</ele>
        <time>2026-02-01T13:11:50Z</time>
      </trkpt>
      <trkpt lat="46.0066" lon="4.15959">
        <ele>422</ele>
        <time>2026-02-01T13:12:08Z</time>
      </trkpt>
      <trkpt lat="46.00736" lon="4.16215">
        <ele>423</ele>
        <time>2026-02-01T13:16:26Z</time>
      </trkpt>
      <trkpt lat="46.01011" lon="4.16086">
        <ele>421</ele>
        <time>2026-02-01T13:22:52Z</time>
      </trkpt>
      <trkpt lat="46.01026" lon="4.16079">
        <ele>420</ele>
        <time>2026-02-01T13:23:13Z</time>
      </trkpt>
      <trkpt lat="46.01036" lon="4.16071">
        <ele>420</ele>
        <time>2026-02-01T13:23:28Z</time>
      </trkpt>
      <trkpt lat="46.0104" lon="4.1606">
        <ele>419</ele>
        <time>2026-02-01T13:23:39Z</time>
      </trkpt>
      <trkpt lat="46.01048" lon="4.16028">
        <ele>419</ele>
        <time>2026-02-01T13:24:11Z</time>
      </trkpt>
      <trkpt lat="46.01068" lon="4.15962">
        <ele>417</ele>
        <time>2026-02-01T13:25:18Z</time>
      </trkpt>
      <trkpt lat="46.01133" lon="4.1576">
        <ele>416</ele>
        <time>2026-02-01T13:28:44Z</time>
      </trkpt>
      <trkpt lat="46.01148" lon="4.15719">
        <ele>416</ele>
        <time>2026-02-01T13:29:27Z</time>
      </trkpt>
      <trkpt lat="46.01156" lon="4.1572">
        <ele>416</ele>
        <time>2026-02-01T13:29:38Z</time>
      </trkpt>
      <trkpt lat="46.01166" lon="4.15724">
        <ele>415</ele>
        <time>2026-02-01T13:29:51Z</time>
      </trkpt>
      <trkpt lat="46.01177" lon="4.15733">
        <ele>414</ele>
        <time>2026-02-01T13:30:08Z</time>
      </trkpt>
      <trkpt lat="46.0123" lon="4.15778">
        <ele>410</ele>
        <time>2026-02-01T13:31:30Z</time>
      </trkpt>
      <trkpt lat="46.01255" lon="4.15803">
        <ele>409</ele>
        <time>2026-02-01T13:32:11Z</time>
      </trkpt>
      <trkpt lat="46.0127" lon="4.1578">
        <ele>408</ele>
        <time>2026-02-01T13:32:40Z</time>
      </trkpt>
      <trkpt lat="46.013" lon="4.15692">
        <ele>408</ele>
        <time>2026-02-01T13:34:11Z</time>
      </trkpt>
      <trkpt lat="46.01327" lon="4.15596">
        <ele>414</ele>
        <time>2026-02-01T13:35:47Z</time>
      </trkpt>
      <trkpt lat="46.01356" lon="4.15553">
        <ele>416</ele>
        <time>2026-02-01T13:36:43Z</time>
      </trkpt>
      <trkpt lat="46.01368" lon="4.15549">
        <ele>415</ele>
        <time>2026-02-01T13:36:59Z</time>
      </trkpt>
      <trkpt lat="46.01453" lon="4.15556">
        <ele>409</ele>
        <time>2026-02-01T13:38:53Z</time>
      </trkpt>
      <trkpt lat="46.01504" lon="4.15551">
        <ele>406</ele>
        <time>2026-02-01T13:40:01Z</time>
      </trkpt>
      <trkpt lat="46.016" lon="4.15549">
        <ele>396</ele>
        <time>2026-02-01T13:42:09Z</time>
      </trkpt>
      <trkpt lat="46.01687" lon="4.15551">
        <ele>382</ele>
        <time>2026-02-01T13:44:05Z</time>
      </trkpt>
      <trkpt lat="46.01696" lon="4.15883">
        <ele>376</ele>
        <time>2026-02-01T13:49:13Z</time>
      </trkpt>
      <trkpt lat="46.01721" lon="4.16076">
        <ele>383</ele>
        <time>2026-02-01T13:52:15Z</time>
      </trkpt>
      <trkpt lat="46.01752" lon="4.16167">
        <ele>397</ele>
        <time>2026-02-01T13:53:49Z</time>
      </trkpt>
      <trkpt lat="46.01701" lon="4.16351">
        <ele>405</ele>
        <time>2026-02-01T13:56:53Z</time>
      </trkpt>
      <trkpt lat="46.0169" lon="4.16378">
        <ele>405</ele>
        <time>2026-02-01T13:57:22Z</time>
      </trkpt>
      <trkpt lat="46.01635" lon="4.16488">
        <ele>410</ele>
        <time>2026-02-01T13:59:27Z</time>
      </trkpt>
      <trkpt lat="46.01618" lon="4.16519">
        <ele>411</ele>
        <time>2026-02-01T14:00:04Z</time>
      </trkpt>
      <trkpt lat="46.01575" lon="4.16568">
        <ele>413</ele>
        <time>2026-02-01T14:01:17Z</time>
      </trkpt>
      <trkpt lat="46.01531" lon="4.16622">
        <ele>414</ele>
        <time>2026-02-01T14:02:34Z</time>
      </trkpt>
      <trkpt lat="46.01509" lon="4.16655">
        <ele>416</ele>
        <time>2026-02-01T14:03:17Z</time>
      </trkpt>
      <trkpt lat="46.01417" lon="4.16832">
        <ele>420</ele>
        <time>2026-02-01T14:06:41Z</time>
      </trkpt>
      <trkpt lat="46.01396" lon="4.1687">
        <ele>421</ele>
        <time>2026-02-01T14:07:26Z</time>
      </trkpt>
      <trkpt lat="46.01376" lon="4.16904">
        <ele>422</ele>
        <time>2026-02-01T14:08:08Z</time>
      </trkpt>
      <trkpt lat="46.01352" lon="4.1692">
        <ele>423</ele>
        <time>2026-02-01T14:08:43Z</time>
      </trkpt>
      <trkpt lat="46.01342" lon="4.1693">
        <ele>424</ele>
        <time>2026-02-01T14:08:59Z</time>
      </trkpt>
      <trkpt lat="46.01333" lon="4.1695">
        <ele>425</ele>
        <time>2026-02-01T14:09:21Z</time>
      </trkpt>
      <trkpt lat="46.01322" lon="4.17049">
        <ele>427</ele>
        <time>2026-02-01T14:10:54Z</time>
      </trkpt>
      <trkpt lat="46.01322" lon="4.17087">
        <ele>428</ele>
        <time>2026-02-01T14:11:29Z</time>
      </trkpt>
      <trkpt lat="46.01328" lon="4.17162">
        <ele>429</ele>
        <time>2026-02-01T14:12:39Z</time>
      </trkpt>
      <trkpt lat="46.01333" lon="4.17162">
        <ele>429</ele>
        <time>2026-02-01T14:12:46Z</time>
      </trkpt>
      <trkpt lat="46.01348" lon="4.17169">
        <ele>428</ele>
        <time>2026-02-01T14:13:07Z</time>
      </trkpt>
      <trkpt lat="46.01383" lon="4.17195">
        <ele>428</ele>
        <time>2026-02-01T14:14:00Z</time>
      </trkpt>
      <trkpt lat="46.01406" lon="4.17221">
        <ele>428</ele>
        <time>2026-02-01T14:14:39Z</time>
      </trkpt>
      <trkpt lat="46.01444" lon="4.17238">
        <ele>428</ele>
        <time>2026-02-01T14:15:32Z</time>
      </trkpt>
      <trkpt lat="46.01494" lon="4.1726">
        <ele>429</ele>
        <time>2026-02-01T14:16:42Z</time>
      </trkpt>
      <trkpt lat="46.01525" lon="4.17263">
        <ele>429</ele>
        <time>2026-02-01T14:17:23Z</time>
      </trkpt>
      <trkpt lat="46.01545" lon="4.17271">
        <ele>430</ele>
        <time>2026-02-01T14:17:51Z</time>
      </trkpt>
      <trkpt lat="46.01555" lon="4.1727">
        <ele>430</ele>
        <time>2026-02-01T14:18:04Z</time>
      </trkpt>
      <trkpt lat="46.01607" lon="4.1725">
        <ele>428</ele>
        <time>2026-02-01T14:19:16Z</time>
      </trkpt>
      <trkpt lat="46.0162" lon="4.17237">
        <ele>427</ele>
        <time>2026-02-01T14:19:37Z</time>
      </trkpt>
      <trkpt lat="46.01634" lon="4.17207">
        <ele>426</ele>
        <time>2026-02-01T14:20:11Z</time>
      </trkpt>
      <trkpt lat="46.01676" lon="4.17142">
        <ele>424</ele>
        <time>2026-02-01T14:21:33Z</time>
      </trkpt>
      <trkpt lat="46.01783" lon="4.17053">
        <ele>416</ele>
        <time>2026-02-01T14:24:18Z</time>
      </trkpt>
      <trkpt lat="46.01922" lon="4.17019">
        <ele>399</ele>
        <time>2026-02-01T14:27:26Z</time>
      </trkpt>
      <trkpt lat="46.01974" lon="4.16743">
        <ele>385</ele>
        <time>2026-02-01T14:31:51Z</time>
      </trkpt>
      <trkpt lat="46.02079" lon="4.16562">
        <ele>397</ele>
        <time>2026-02-01T14:35:29Z</time>
      </trkpt>
      <trkpt lat="46.02163" lon="4.16533">
        <ele>413</ele>
        <time>2026-02-01T14:37:25Z</time>
      </trkpt>
      <trkpt lat="46.02167" lon="4.16527">
        <ele>413</ele>
        <time>2026-02-01T14:37:32Z</time>
      </trkpt>
      <trkpt lat="46.02301" lon="4.16487">
        <ele>421</ele>
        <time>2026-02-01T14:40:35Z</time>
      </trkpt>
      <trkpt lat="46.02321" lon="4.16488">
        <ele>422</ele>
        <time>2026-02-01T14:41:02Z</time>
      </trkpt>
      <trkpt lat="46.02338" lon="4.16495">
        <ele>422</ele>
        <time>2026-02-01T14:41:25Z</time>
      </trkpt>
      <trkpt lat="46.02433" lon="4.16543">
        <ele>421</ele>
        <time>2026-02-01T14:43:40Z</time>
      </trkpt>
      <trkpt lat="46.02434" lon="4.16537">
        <ele>420</ele>
        <time>2026-02-01T14:43:45Z</time>
      </trkpt>
      <trkpt lat="46.02544" lon="4.16646">
        <ele>416</ele>
        <time>2026-02-01T14:46:44Z</time>
      </trkpt>
      <trkpt lat="46.02566" lon="4.16675">
        <ele>415</ele>
        <time>2026-02-01T14:47:23Z</time>
      </trkpt>
      <trkpt lat="46.02599" lon="4.1675">
        <ele>415</ele>
        <time>2026-02-01T14:48:46Z</time>
      </trkpt>
      <trkpt lat="46.02626" lon="4.16797">
        <ele>417</ele>
        <time>2026-02-01T14:49:42Z</time>
      </trkpt>
      <trkpt lat="46.02656" lon="4.16847">
        <ele>419</ele>
        <time>2026-02-01T14:50:43Z</time>
      </trkpt>
      <trkpt lat="46.02689" lon="4.16883">
        <ele>418</ele>
        <time>2026-02-01T14:51:39Z</time>
      </trkpt>
      <trkpt lat="46.02719" lon="4.16905">
        <ele>417</ele>
        <time>2026-02-01T14:52:24Z</time>
      </trkpt>
      <trkpt lat="46.0265" lon="4.17055">
        <ele>422</ele>
        <time>2026-02-01T14:55:10Z</time>
      </trkpt>
      <trkpt lat="46.02616" lon="4.17137">
        <ele>422</ele>
        <time>2026-02-01T14:56:39Z</time>
      </trkpt>
      <trkpt lat="46.02594" lon="4.17183">
        <ele>423</ele>
        <time>2026-02-01T14:57:31Z</time>
      </trkpt>
      <trkpt lat="46.02557" lon="4.1723">
        <ele>424</ele>
        <time>2026-02-01T14:58:36Z</time>
      </trkpt>
      <trkpt lat="46.02505" lon="4.17283">
        <ele>425</ele>
        <time>2026-02-01T15:00:01Z</time>
      </trkpt>
      <trkpt lat="46.02508" lon="4.17303">
        <ele>425</ele>
        <time>2026-02-01T15:00:20Z</time>
      </trkpt>
      <trkpt lat="46.02518" lon="4.17343">
        <ele>424</ele>
        <time>2026-02-01T15:01:00Z</time>
      </trkpt>
      <trkpt lat="46.02527" lon="4.17366">
        <ele>424</ele>
        <time>2026-02-01T15:01:24Z</time>
      </trkpt>
      <trkpt lat="46.02606" lon="4.17566">
        <ele>417</ele>
        <time>2026-02-01T15:04:57Z</time>
      </trkpt>
      <trkpt lat="46.02614" lon="4.17593">
        <ele>417</ele>
        <time>2026-02-01T15:05:25Z</time>
      </trkpt>
      <trkpt lat="46.02625" lon="4.17635">
        <ele>417</ele>
        <time>2026-02-01T15:06:06Z</time>
      </trkpt>
      <trkpt lat="46.02635" lon="4.17663">
        <ele>417</ele>
        <time>2026-02-01T15:06:35Z</time>
      </trkpt>
      <trkpt lat="46.02655" lon="4.1771">
        <ele>419</ele>
        <time>2026-02-01T15:07:26Z</time>
      </trkpt>
      <trkpt lat="46.0267" lon="4.17737">
        <ele>420</ele>
        <time>2026-02-01T15:07:59Z</time>
      </trkpt>
      <trkpt lat="46.02683" lon="4.17755">
        <ele>420</ele>
        <time>2026-02-01T15:08:23Z</time>
      </trkpt>
      <trkpt lat="46.02702" lon="4.17774">
        <ele>420</ele>
        <time>2026-02-01T15:08:53Z</time>
      </trkpt>
      <trkpt lat="46.02731" lon="4.17825">
        <ele>420</ele>
        <time>2026-02-01T15:09:55Z</time>
      </trkpt>
      <trkpt lat="46.02733" lon="4.17827">
        <ele>420</ele>
        <time>2026-02-01T15:09:58Z</time>
      </trkpt>
      <trkpt lat="46.02742" lon="4.17836">
        <ele>419</ele>
        <time>2026-02-01T15:10:12Z</time>
      </trkpt>
      <trkpt lat="46.02803" lon="4.17857">
        <ele>414</ele>
        <time>2026-02-01T15:11:36Z</time>
      </trkpt>
      <trkpt lat="46.02899" lon="4.18001">
        <ele>391</ele>
        <time>2026-02-01T15:14:41Z</time>
      </trkpt>
      <trkpt lat="46.03023" lon="4.18105">
        <ele>383</ele>
        <time>2026-02-01T15:17:53Z</time>
      </trkpt>
      <trkpt lat="46.03072" lon="4.18211">
        <ele>381</ele>
        <time>2026-02-01T15:19:51Z</time>
      </trkpt>
      <trkpt lat="46.03229" lon="4.18281">
        <ele>355</ele>
        <time>2026-02-01T15:23:30Z</time>
      </trkpt>
      <trkpt lat="46.03159" lon="4.18494">
        <ele>347</ele>
        <time>2026-02-01T15:27:08Z</time>
      </trkpt>
      <trkpt lat="46.03119" lon="4.18649">
        <ele>349</ele>
        <time>2026-02-01T15:29:41Z</time>
      </trkpt>
      <trkpt lat="46.03174" lon="4.1873">
        <ele>346</ele>
        <time>2026-02-01T15:31:26Z</time>
      </trkpt>
      <trkpt lat="46.03176" lon="4.18872">
        <ele>355</ele>
        <time>2026-02-01T15:33:38Z</time>
      </trkpt>
      <trkpt lat="46.03174" lon="4.18903">
        <ele>355</ele>
        <time>2026-02-01T15:34:07Z</time>
      </trkpt>
      <trkpt lat="46.03175" lon="4.18939">
        <ele>356</ele>
        <time>2026-02-01T15:34:40Z</time>
      </trkpt>
      <trkpt lat="46.03176" lon="4.18947">
        <ele>357</ele>
        <time>2026-02-01T15:34:48Z</time>
      </trkpt>
      <trkpt lat="46.03161" lon="4.18947">
        <ele>355</ele>
        <time>2026-02-01T15:35:08Z</time>
      </trkpt>
      <trkpt lat="46.03125" lon="4.18953">
        <ele>358</ele>
        <time>2026-02-01T15:35:56Z</time>
      </trkpt>
      <trkpt lat="46.03117" lon="4.18948">
        <ele>358</ele>
        <time>2026-02-01T15:36:08Z</time>
      </trkpt>
      <trkpt lat="46.0311" lon="4.18938">
        <ele>359</ele>
        <time>2026-02-01T15:36:21Z</time>
      </trkpt>
      <trkpt lat="46.03105" lon="4.18921">
        <ele>359</ele>
        <time>2026-02-01T15:36:38Z</time>
      </trkpt>
      <trkpt lat="46.03103" lon="4.18906">
        <ele>358</ele>
        <time>2026-02-01T15:36:52Z</time>
      </trkpt>
      <trkpt lat="46.03103" lon="4.18885">
        <ele>358</ele>
        <time>2026-02-01T15:37:12Z</time>
      </trkpt>
      <trkpt lat="46.03102" lon="4.18865">
        <ele>358</ele>
        <time>2026-02-01T15:37:30Z</time>
      </trkpt>
      <trkpt lat="46.031" lon="4.18847">
        <ele>358</ele>
        <time>2026-02-01T15:37:47Z</time>
      </trkpt>
      <trkpt lat="46.03094" lon="4.18832">
        <ele>358</ele>
        <time>2026-02-01T15:38:03Z</time>
      </trkpt>
      <trkpt lat="46.03086" lon="4.18819">
        <ele>358</ele>
        <time>2026-02-01T15:38:19Z</time>
      </trkpt>
      <trkpt lat="46.03078" lon="4.18815">
        <ele>358</ele>
        <time>2026-02-01T15:38:30Z</time>
      </trkpt>
      <trkpt lat="46.03031" lon="4.18801">
        <ele>359</ele>
        <time>2026-02-01T15:39:35Z</time>
      </trkpt>
      <trkpt lat="46.0302" lon="4.18806">
        <ele>360</ele>
        <time>2026-02-01T15:39:50Z</time>
      </trkpt>
      <trkpt lat="46.02996" lon="4.18821">
        <ele>362</ele>
        <time>2026-02-01T15:40:25Z</time>
      </trkpt>
      <trkpt lat="46.02985" lon="4.18823">
        <ele>363</ele>
        <time>2026-02-01T15:40:40Z</time>
      </trkpt>
      <trkpt lat="46.02961" lon="4.18817">
        <ele>364</ele>
        <time>2026-02-01T15:41:12Z</time>
      </trkpt>
      <trkpt lat="46.02955" lon="4.18817">
        <ele>364</ele>
        <time>2026-02-01T15:41:20Z</time>
      </trkpt>
      <trkpt lat="46.0295" lon="4.18821">
        <ele>365</ele>
        <time>2026-02-01T15:41:28Z</time>
      </trkpt>
      <trkpt lat="46.02947" lon="4.18827">
        <ele>366</ele>
        <time>2026-02-01T15:41:35Z</time>
      </trkpt>
      <trkpt lat="46.02949" lon="4.18837">
        <ele>367</ele>
        <time>2026-02-01T15:41:44Z</time>
      </trkpt>
      <trkpt lat="46.02967" lon="4.18864">
        <ele>369</ele>
        <time>2026-02-01T15:42:19Z</time>
      </trkpt>
      <trkpt lat="46.02999" lon="4.18914">
        <ele>375</ele>
        <time>2026-02-01T15:43:22Z</time>
      </trkpt>
      <trkpt lat="46.03002" lon="4.18935">
        <ele>376</ele>
        <time>2026-02-01T15:43:42Z</time>
      </trkpt>
      <trkpt lat="46.02997" lon="4.18956">
        <ele>378</ele>
        <time>2026-02-01T15:44:02Z</time>
      </trkpt>
      <trkpt lat="46.02969" lon="4.18995">
        <ele>383</ele>
        <time>2026-02-01T15:44:54Z</time>
      </trkpt>
      <trkpt lat="46.02958" lon="4.19011">
        <ele>384</ele>
        <time>2026-02-01T15:45:15Z</time>
      </trkpt>
      <trkpt lat="46.02953" lon="4.19029">
        <ele>385</ele>
        <time>2026-02-01T15:45:33Z</time>
      </trkpt>
      <trkpt lat="46.02951" lon="4.19049">
        <ele>386</ele>
        <time>2026-02-01T15:45:52Z</time>
      </trkpt>
      <trkpt lat="46.02954" lon="4.19065">
        <ele>387</ele>
        <time>2026-02-01T15:46:07Z</time>
      </trkpt>
      <trkpt lat="46.02954" lon="4.19076">
        <ele>387</ele>
        <time>2026-02-01T15:46:17Z</time>
      </trkpt>
      <trkpt lat="46.02951" lon="4.1908">
        <ele>388</ele>
        <time>2026-02-01T15:46:23Z</time>
      </trkpt>
      <trkpt lat="46.02945" lon="4.19084">
        <ele>388</ele>
        <time>2026-02-01T15:46:32Z</time>
      </trkpt>
      <trkpt lat="46.0294" lon="4.19084">
        <ele>389</ele>
        <time>2026-02-01T15:46:38Z</time>
      </trkpt>
      <trkpt lat="46.02934" lon="4.19073">
        <ele>389</ele>
        <time>2026-02-01T15:46:51Z</time>
      </trkpt>
      <trkpt lat="46.02926" lon="4.19052">
        <ele>389</ele>
        <time>2026-02-01T15:47:14Z</time>
      </trkpt>
      <trkpt lat="46.02915" lon="4.19036">
        <ele>389</ele>
        <time>2026-02-01T15:47:34Z</time>
      </trkpt>
      <trkpt lat="46.02905" lon="4.19026">
        <ele>389</ele>
        <time>2026-02-01T15:47:51Z</time>
      </trkpt>
      <trkpt lat="46.02892" lon="4.1902">
        <ele>390</ele>
        <time>2026-02-01T15:48:09Z</time>
      </trkpt>
      <trkpt lat="46.02861" lon="4.19022">
        <ele>392</ele>
        <time>2026-02-01T15:48:50Z</time>
      </trkpt>
      <trkpt lat="46.02838" lon="4.19027">
        <ele>394</ele>
        <time>2026-02-01T15:49:21Z</time>
      </trkpt>
      <trkpt lat="46.0282" lon="4.19038">
        <ele>395</ele>
        <time>2026-02-01T15:49:47Z</time>
      </trkpt>
      <trkpt lat="46.028" lon="4.19058">
        <ele>397</ele>
        <time>2026-02-01T15:50:20Z</time>
      </trkpt>
      <trkpt lat="46.02788" lon="4.19084">
        <ele>399</ele>
        <time>2026-02-01T15:50:49Z</time>
      </trkpt>
      <trkpt lat="46.02783" lon="4.19108">
        <ele>400</ele>
        <time>2026-02-01T15:51:12Z</time>
      </trkpt>
      <trkpt lat="46.02786" lon="4.19137">
        <ele>402</ele>
        <time>2026-02-01T15:51:39Z</time>
      </trkpt>
      <trkpt lat="46.02846" lon="4.19439">
        <ele>413</ele>
        <time>2026-02-01T15:56:30Z</time>
      </trkpt>
      <trkpt lat="46.02845" lon="4.19461">
        <ele>413</ele>
        <time>2026-02-01T15:56:51Z</time>
      </trkpt>
      <trkpt lat="46.02825" lon="4.19546">
        <ele>415</ele>
        <time>2026-02-01T15:58:14Z</time>
      </trkpt>
      <trkpt lat="46.02806" lon="4.19622">
        <ele>416</ele>
        <time>2026-02-01T15:59:29Z</time>
      </trkpt>
      <trkpt lat="46.02794" lon="4.1964">
        <ele>417</ele>
        <time>2026-02-01T15:59:52Z</time>
      </trkpt>
      <trkpt lat="46.02785" lon="4.19661">
        <ele>418</ele>
        <time>2026-02-01T16:00:15Z</time>
      </trkpt>
      <trkpt lat="46.02789" lon="4.19673">
        <ele>418</ele>
        <time>2026-02-01T16:00:27Z</time>
      </trkpt>
      <trkpt lat="46.02802" lon="4.19689">
        <ele>417</ele>
        <time>2026-02-01T16:00:50Z</time>
      </trkpt>
      <trkpt lat="46.02812" lon="4.1974">
        <ele>417</ele>
        <time>2026-02-01T16:01:39Z</time>
      </trkpt>
      <trkpt lat="46.02823" lon="4.19763">
        <ele>417</ele>
        <time>2026-02-01T16:02:05Z</time>
      </trkpt>
      <trkpt lat="46.02825" lon="4.19776">
        <ele>416</ele>
        <time>2026-02-01T16:02:17Z</time>
      </trkpt>
      <trkpt lat="46.0284" lon="4.19792">
        <ele>416</ele>
        <time>2026-02-01T16:02:42Z</time>
      </trkpt>
      <trkpt lat="46.02826" lon="4.19796">
        <ele>416</ele>
        <time>2026-02-01T16:03:01Z</time>
      </trkpt>
      <trkpt lat="46.02789" lon="4.19814">
        <ele>415</ele>
        <time>2026-02-01T16:03:53Z</time>
      </trkpt>
      <trkpt lat="46.02772" lon="4.19817">
        <ele>415</ele>
        <time>2026-02-01T16:04:16Z</time>
      </trkpt>
      <trkpt lat="46.02752" lon="4.19813">
        <ele>415</ele>
        <time>2026-02-01T16:04:43Z</time>
      </trkpt>
      <trkpt lat="46.02686" lon="4.19782">
        <ele>410</ele>
        <time>2026-02-01T16:06:16Z</time>
      </trkpt>
      <trkpt lat="46.02666" lon="4.19772">
        <ele>408</ele>
        <time>2026-02-01T16:06:44Z</time>
      </trkpt>
      <trkpt lat="46.02644" lon="4.19755">
        <ele>406</ele>
        <time>2026-02-01T16:07:17Z</time>
      </trkpt>
      <trkpt lat="46.02621" lon="4.19734">
        <ele>404</ele>
        <time>2026-02-01T16:07:54Z</time>
      </trkpt>
      <trkpt lat="46.02596" lon="4.19707">
        <ele>400</ele>
        <time>2026-02-01T16:08:35Z</time>
      </trkpt>
      <trkpt lat="46.0258" lon="4.19685">
        <ele>398</ele>
        <time>2026-02-01T16:09:05Z</time>
      </trkpt>
      <trkpt lat="46.02562" lon="4.19645">
        <ele>394</ele>
        <time>2026-02-01T16:09:49Z</time>
      </trkpt>
      <trkpt lat="46.0255" lon="4.19616">
        <ele>391</ele>
        <time>2026-02-01T16:10:20Z</time>
      </trkpt>
      <trkpt lat="46.02536" lon="4.1959">
        <ele>388</ele>
        <time>2026-02-01T16:10:51Z</time>
      </trkpt>
      <trkpt lat="46.02521" lon="4.19567">
        <ele>385</ele>
        <time>2026-02-01T16:11:20Z</time>
      </trkpt>
      <trkpt lat="46.02505" lon="4.19547">
        <ele>383</ele>
        <time>2026-02-01T16:11:48Z</time>
      </trkpt>
      <trkpt lat="46.02497" lon="4.19524">
        <ele>382</ele>
        <time>2026-02-01T16:12:12Z</time>
      </trkpt>
      <trkpt lat="46.02497" lon="4.19499">
        <ele>383</ele>
        <time>2026-02-01T16:12:35Z</time>
      </trkpt>
      <trkpt lat="46.025" lon="4.19418">
        <ele>377</ele>
        <time>2026-02-01T16:13:50Z</time>
      </trkpt>
      <trkpt lat="46.02509" lon="4.19373">
        <ele>375</ele>
        <time>2026-02-01T16:14:34Z</time>
      </trkpt>
      <trkpt lat="46.02519" lon="4.19358">
        <ele>376</ele>
        <time>2026-02-01T16:14:53Z</time>
      </trkpt>
      <trkpt lat="46.0253" lon="4.19352">
        <ele>377</ele>
        <time>2026-02-01T16:15:09Z</time>
      </trkpt>
      <trkpt lat="46.02546" lon="4.19347">
        <ele>379</ele>
        <time>2026-02-01T16:15:31Z</time>
      </trkpt>
      <trkpt lat="46.02555" lon="4.19331">
        <ele>380</ele>
        <time>2026-02-01T16:15:50Z</time>
      </trkpt>
      <trkpt lat="46.02552" lon="4.1931">
        <ele>380</ele>
        <time>2026-02-01T16:16:10Z</time>
      </trkpt>
      <trkpt lat="46.02543" lon="4.19297">
        <ele>379</ele>
        <time>2026-02-01T16:16:27Z</time>
      </trkpt>
      <trkpt lat="46.02526" lon="4.19295">
        <ele>376</ele>
        <time>2026-02-01T16:16:49Z</time>
      </trkpt>
      <trkpt lat="46.02474" lon="4.19333">
        <ele>369</ele>
        <time>2026-02-01T16:18:07Z</time>
      </trkpt>
      <trkpt lat="46.02464" lon="4.19337">
        <ele>368</ele>
        <time>2026-02-01T16:18:21Z</time>
      </trkpt>
      <trkpt lat="46.02452" lon="4.19341">
        <ele>367</ele>
        <time>2026-02-01T16:18:37Z</time>
      </trkpt>
      <trkpt lat="46.02411" lon="4.19355">
        <ele>364</ele>
        <time>2026-02-01T16:19:34Z</time>
      </trkpt>
      <trkpt lat="46.024" lon="4.19353">
        <ele>366</ele>
        <time>2026-02-01T16:19:48Z</time>
      </trkpt>
      <trkpt lat="46.02397" lon="4.1935">
        <ele>366</ele>
        <time>2026-02-01T16:19:53Z</time>
      </trkpt>
      <trkpt lat="46.02389" lon="4.19377">
        <ele>367</ele>
        <time>2026-02-01T16:20:21Z</time>
      </trkpt>
      <trkpt lat="46.02373" lon="4.19438">
        <ele>370</ele>
        <time>2026-02-01T16:21:21Z</time>
      </trkpt>
      <trkpt lat="46.02364" lon="4.19465">
        <ele>371</ele>
        <time>2026-02-01T16:21:49Z</time>
      </trkpt>
      <trkpt lat="46.02348" lon="4.19501">
        <ele>373</ele>
        <time>2026-02-01T16:22:28Z</time>
      </trkpt>
      <trkpt lat="46.02342" lon="4.19518">
        <ele>375</ele>
        <time>2026-02-01T16:22:46Z</time>
      </trkpt>
      <trkpt lat="46.02339" lon="4.19536">
        <ele>376</ele>
        <time>2026-02-01T16:23:03Z</time>
      </trkpt>
      <trkpt lat="46.02338" lon="4.19551">
        <ele>377</ele>
        <time>2026-02-01T16:23:17Z</time>
      </trkpt>
      <trkpt lat="46.02339" lon="4.19574">
        <ele>378</ele>
        <time>2026-02-01T16:23:38Z</time>
      </trkpt>
      <trkpt lat="46.02349" lon="4.19655">
        <ele>384</ele>
        <time>2026-02-01T16:24:55Z</time>
      </trkpt>
      <trkpt lat="46.02354" lon="4.19706">
        <ele>385</ele>
        <time>2026-02-01T16:25:42Z</time>
      </trkpt>
      <trkpt lat="46.02353" lon="4.19722">
        <ele>386</ele>
        <time>2026-02-01T16:25:57Z</time>
      </trkpt>
      <trkpt lat="46.02349" lon="4.19734">
        <ele>387</ele>
        <time>2026-02-01T16:26:10Z</time>
      </trkpt>
      <trkpt lat="46.02341" lon="4.19749">
        <ele>389</ele>
        <time>2026-02-01T16:26:27Z</time>
      </trkpt>
      <trkpt lat="46.02333" lon="4.19758">
        <ele>390</ele>
        <time>2026-02-01T16:26:41Z</time>
      </trkpt>
      <trkpt lat="46.02321" lon="4.19768">
        <ele>390</ele>
        <time>2026-02-01T16:26:59Z</time>
      </trkpt>
      <trkpt lat="46.02307" lon="4.19774">
        <ele>391</ele>
        <time>2026-02-01T16:27:19Z</time>
      </trkpt>
      <trkpt lat="46.02273" lon="4.1978">
        <ele>393</ele>
        <time>2026-02-01T16:28:04Z</time>
      </trkpt>
      <trkpt lat="46.02229" lon="4.19785">
        <ele>397</ele>
        <time>2026-02-01T16:29:03Z</time>
      </trkpt>
      <trkpt lat="46.02208" lon="4.19789">
        <ele>398</ele>
        <time>2026-02-01T16:29:32Z</time>
      </trkpt>
      <trkpt lat="46.02147" lon="4.1981">
        <ele>403</ele>
        <time>2026-02-01T16:30:55Z</time>
      </trkpt>
      <trkpt lat="46.02118" lon="4.19824">
        <ele>407</ele>
        <time>2026-02-01T16:31:36Z</time>
      </trkpt>
      <trkpt lat="46.02097" lon="4.19839">
        <ele>409</ele>
        <time>2026-02-01T16:32:07Z</time>
      </trkpt>
      <trkpt lat="46.02084" lon="4.19855">
        <ele>411</ele>
        <time>2026-02-01T16:32:30Z</time>
      </trkpt>
      <trkpt lat="46.02064" lon="4.19889">
        <ele>413</ele>
        <time>2026-02-01T16:33:11Z</time>
      </trkpt>
      <trkpt lat="46.02055" lon="4.19911">
        <ele>414</ele>
        <time>2026-02-01T16:33:35Z</time>
      </trkpt>
      <trkpt lat="46.02052" lon="4.19913">
        <ele>414</ele>
        <time>2026-02-01T16:33:40Z</time>
      </trkpt>
      <trkpt lat="46.02048" lon="4.19912">
        <ele>414</ele>
        <time>2026-02-01T16:33:45Z</time>
      </trkpt>
      <trkpt lat="46.02055" lon="4.19931">
        <ele>415</ele>
        <time>2026-02-01T16:34:05Z</time>
      </trkpt>
      <trkpt lat="46.02111" lon="4.20059">
        <ele>419</ele>
        <time>2026-02-01T16:36:25Z</time>
      </trkpt>
      <trkpt lat="46.02119" lon="4.20089">
        <ele>420</ele>
        <time>2026-02-01T16:36:55Z</time>
      </trkpt>
      <trkpt lat="46.02132" lon="4.20121">
        <ele>419</ele>
        <time>2026-02-01T16:37:29Z</time>
      </trkpt>
      <trkpt lat="46.0213" lon="4.20135">
        <ele>419</ele>
        <time>2026-02-01T16:37:42Z</time>
      </trkpt>
      <trkpt lat="46.02112" lon="4.20181">
        <ele>422</ele>
        <time>2026-02-01T16:38:31Z</time>
      </trkpt>
      <trkpt lat="46.02095" lon="4.20234">
        <ele>427</ele>
        <time>2026-02-01T16:39:25Z</time>
      </trkpt>
      <trkpt lat="46.02091" lon="4.20241">
        <ele>428</ele>
        <time>2026-02-01T16:39:34Z</time>
      </trkpt>
      <trkpt lat="46.02081" lon="4.20241">
        <ele>429</ele>
        <time>2026-02-01T16:39:47Z</time>
      </trkpt>
      <trkpt lat="46.02036" lon="4.20251">
        <ele>435</ele>
        <time>2026-02-01T16:40:48Z</time>
      </trkpt>
      <trkpt lat="46.0197" lon="4.2027">
        <ele>442</ele>
        <time>2026-02-01T16:42:18Z</time>
      </trkpt>
      <trkpt lat="46.01906" lon="4.20278">
        <ele>445</ele>
        <time>2026-02-01T16:43:44Z</time>
      </trkpt>
      <trkpt lat="46.01702" lon="4.20302">
        <ele>449</ele>
        <time>2026-02-01T16:48:17Z</time>
      </trkpt>
      <trkpt lat="46.0166" lon="4.20307">
        <ele>450</ele>
        <time>2026-02-01T16:49:13Z</time>
      </trkpt>
      <trkpt lat="46.01628" lon="4.20314">
        <ele>451</ele>
        <time>2026-02-01T16:49:56Z</time>
      </trkpt>
      <trkpt lat="46.01515" lon="4.20365">
        <ele>452</ele>
        <time>2026-02-01T16:52:34Z</time>
      </trkpt>
      <trkpt lat="46.01445" lon="4.2041">
        <ele>453</ele>
        <time>2026-02-01T16:54:16Z</time>
      </trkpt>
      <trkpt lat="46.01366" lon="4.20474">
        <ele>451</ele>
        <time>2026-02-01T16:56:17Z</time>
      </trkpt>
      <trkpt lat="46.01281" lon="4.20564">
        <ele>454</ele>
        <time>2026-02-01T16:58:38Z</time>
      </trkpt>
      <trkpt lat="46.01291" lon="4.20589">
        <ele>453</ele>
        <time>2026-02-01T16:59:05Z</time>
      </trkpt>
      <trkpt lat="46.01297" lon="4.20612">
        <ele>453</ele>
        <time>2026-02-01T16:59:28Z</time>
      </trkpt>
      <trkpt lat="46.01299" lon="4.20636">
        <ele>452</ele>
        <time>2026-02-01T16:59:50Z</time>
      </trkpt>
      <trkpt lat="46.01297" lon="4.20656">
        <ele>452</ele>
        <time>2026-02-01T17:00:09Z</time>
      </trkpt>
      <trkpt lat="46.01291" lon="4.20676">
        <ele>452</ele>
        <time>2026-02-01T17:00:29Z</time>
      </trkpt>
      <trkpt lat="46.01282" lon="4.20694">
        <ele>452</ele>
        <time>2026-02-01T17:00:50Z</time>
      </trkpt>
      <trkpt lat="46.01267" lon="4.20718">
        <ele>454</ele>
        <time>2026-02-01T17:01:19Z</time>
      </trkpt>
      <trkpt lat="46.0126" lon="4.20733">
        <ele>454</ele>
        <time>2026-02-01T17:01:36Z</time>
      </trkpt>
      <trkpt lat="46.01258" lon="4.20745">
        <ele>454</ele>
        <time>2026-02-01T17:01:48Z</time>
      </trkpt>
      <trkpt lat="46.01261" lon="4.20761">
        <ele>454</ele>
        <time>2026-02-01T17:02:03Z</time>
      </trkpt>
      <trkpt lat="46.01266" lon="4.20769">
        <ele>454</ele>
        <time>2026-02-01T17:02:13Z</time>
      </trkpt>
      <trkpt lat="46.01278" lon="4.20775">
        <ele>452</ele>
        <time>2026-02-01T17:02:30Z</time>
      </trkpt>
      <trkpt lat="46.01307" lon="4.20782">
        <ele>449</ele>
        <time>2026-02-01T17:03:09Z</time>
      </trkpt>
      <trkpt lat="46.01317" lon="4.20786">
        <ele>448</ele>
        <time>2026-02-01T17:03:23Z</time>
      </trkpt>
      <trkpt lat="46.01468" lon="4.20908">
        <ele>442</ele>
        <time>2026-02-01T17:07:14Z</time>
      </trkpt>
      <trkpt lat="46.01493" lon="4.20933">
        <ele>442</ele>
        <time>2026-02-01T17:07:55Z</time>
      </trkpt>
      <trkpt lat="46.01505" lon="4.20948">
        <ele>441</ele>
        <time>2026-02-01T17:08:16Z</time>
      </trkpt>
      <trkpt lat="46.01534" lon="4.20998">
        <ele>439</ele>
        <time>2026-02-01T17:09:16Z</time>
      </trkpt>
      <trkpt lat="46.01544" lon="4.21013">
        <ele>439</ele>
        <time>2026-02-01T17:09:36Z</time>
      </trkpt>
      <trkpt lat="46.0154" lon="4.21015">
        <ele>439</ele>
        <time>2026-02-01T17:09:41Z</time>
      </trkpt>
      <trkpt lat="46.01533" lon="4.21015">
        <ele>439</ele>
        <time>2026-02-01T17:09:51Z</time>
      </trkpt>
      <trkpt lat="46.01509" lon="4.21003">
        <ele>439</ele>
        <time>2026-02-01T17:10:24Z</time>
      </trkpt>
      <trkpt lat="46.01495" lon="4.21002">
        <ele>439</ele>
        <time>2026-02-01T17:10:43Z</time>
      </trkpt>
      <trkpt lat="46.01468" lon="4.21006">
        <ele>439</ele>
        <time>2026-02-01T17:11:19Z</time>
      </trkpt>
      <trkpt lat="46.01462" lon="4.20999">
        <ele>440</ele>
        <time>2026-02-01T17:11:30Z</time>
      </trkpt>
      <trkpt lat="46.01454" lon="4.20996">
        <ele>440</ele>
        <time>2026-02-01T17:11:41Z</time>
      </trkpt>
      <trkpt lat="46.01408" lon="4.20991">
        <ele>442</ele>
        <time>2026-02-01T17:12:42Z</time>
      </trkpt>
      <trkpt lat="46.01356" lon="4.20974">
        <ele>445</ele>
        <time>2026-02-01T17:13:53Z</time>
      </trkpt>
      <trkpt lat="46.01308" lon="4.20962">
        <ele>448</ele>
        <time>2026-02-01T17:14:58Z</time>
      </trkpt>
      <trkpt lat="46.01212" lon="4.20959">
        <ele>454</ele>
        <time>2026-02-01T17:17:07Z</time>
      </trkpt>
      <trkpt lat="46.01144" lon="4.20961">
        <ele>456</ele>
        <time>2026-02-01T17:18:37Z</time>
      </trkpt>
      <trkpt lat="46.01047" lon="4.20974">
        <ele>458</ele>
        <time>2026-02-01T17:20:47Z</time>
      </trkpt>
      <trkpt lat="46.01011" lon="4.20992">
        <ele>459</ele>
        <time>2026-02-01T17:21:38Z</time>
      </trkpt>
      <trkpt lat="46.00978" lon="4.21017">
        <ele>458</ele>
        <time>2026-02-01T17:22:28Z</time>
      </trkpt>
      <trkpt lat="46.00947" lon="4.21028">
        <ele>457</ele>
        <time>2026-02-01T17:23:11Z</time>
      </trkpt>
      <trkpt lat="46.00741" lon="4.21076">
        <ele>452</ele>
        <time>2026-02-01T17:27:49Z</time>
      </trkpt>
      <trkpt lat="46.00679" lon="4.21083">
        <ele>449</ele>
        <time>2026-02-01T17:29:12Z</time>
      </trkpt>
      <trkpt lat="46.00623" lon="4.2108">
        <ele>448</ele>
        <time>2026-02-01T17:30:27Z</time>
      </trkpt>
      <trkpt lat="46.00595" lon="4.21072">
        <ele>448</ele>
        <time>2026-02-01T17:31:05Z</time>
      </trkpt>
      <trkpt lat="46.00579" lon="4.21062">
        <ele>447</ele>
        <time>2026-02-01T17:31:28Z</time>
      </trkpt>
      <trkpt lat="46.00561" lon="4.21062">
        <ele>447</ele>
        <time>2026-02-01T17:31:52Z</time>
      </trkpt>
      <trkpt lat="46.00475" lon="4.2109">
        <ele>443</ele>
        <time>2026-02-01T17:33:50Z</time>
      </trkpt>
      <trkpt lat="46.00396" lon="4.21109">
        <ele>441</ele>
        <time>2026-02-01T17:35:37Z</time>
      </trkpt>
      <trkpt lat="46.00356" lon="4.21116">
        <ele>440</ele>
        <time>2026-02-01T17:36:31Z</time>
      </trkpt>
      <trkpt lat="46.00305" lon="4.21116">
        <ele>440</ele>
        <time>2026-02-01T17:37:39Z</time>
      </trkpt>
      <trkpt lat="46.00275" lon="4.21123">
        <ele>439</ele>
        <time>2026-02-01T17:38:19Z</time>
      </trkpt>
      <trkpt lat="46.00217" lon="4.21162">
        <ele>437</ele>
        <time>2026-02-01T17:39:45Z</time>
      </trkpt>
      <trkpt lat="46.00222" lon="4.2114">
        <ele>439</ele>
        <time>2026-02-01T17:40:06Z</time>
      </trkpt>
      <trkpt lat="46.00248" lon="4.21076">
        <ele>443</ele>
        <time>2026-02-01T17:41:15Z</time>
      </trkpt>
      <trkpt lat="46.00273" lon="4.21021">
        <ele>444</ele>
        <time>2026-02-01T17:42:16Z</time>
      </trkpt>
      <trkpt lat="46.00288" lon="4.20987">
        <ele>444</ele>
        <time>2026-02-01T17:42:53Z</time>
      </trkpt>
      <trkpt lat="46.00302" lon="4.20946">
        <ele>443</ele>
        <time>2026-02-01T17:43:35Z</time>
      </trkpt>
      <trkpt lat="46.00337" lon="4.20854">
        <ele>440</ele>
        <time>2026-02-01T17:45:13Z</time>
      </trkpt>
      <trkpt lat="46.00364" lon="4.20797">
        <ele>438</ele>
        <time>2026-02-01T17:46:17Z</time>
      </trkpt>
      <trkpt lat="46.00382" lon="4.20765">
        <ele>437</ele>
        <time>2026-02-01T17:46:55Z</time>
      </trkpt>
      <trkpt lat="46.00484" lon="4.20529">
        <ele>440</ele>
        <time>2026-02-01T17:51:12Z</time>
      </trkpt>
      <trkpt lat="46.00519" lon="4.20419">
        <ele>442</ele>
        <time>2026-02-01T17:53:04Z</time>
      </trkpt>
      <trkpt lat="46.00498" lon="4.20372">
        <ele>441</ele>
        <time>2026-02-01T17:53:56Z</time>
      </trkpt>
      <trkpt lat="46.0049" lon="4.20357">
        <ele>441</ele>
        <time>2026-02-01T17:54:14Z</time>
      </trkpt>
      <trkpt lat="46.00477" lon="4.20339">
        <ele>441</ele>
        <time>2026-02-01T17:54:38Z</time>
      </trkpt>
      <trkpt lat="46.00445" lon="4.20299">
        <ele>441</ele>
        <time>2026-02-01T17:55:34Z</time>
      </trkpt>
      <trkpt lat="46.00414" lon="4.2027">
        <ele>443</ele>
        <time>2026-02-01T17:56:24Z</time>
      </trkpt>
      <trkpt lat="46.0035" lon="4.20222">
        <ele>446</ele>
        <time>2026-02-01T17:58:00Z</time>
      </trkpt>
      <trkpt lat="46.00337" lon="4.2021">
        <ele>446</ele>
        <time>2026-02-01T17:58:21Z</time>
      </trkpt>
      <trkpt lat="46.00316" lon="4.20186">
        <ele>447</ele>
        <time>2026-02-01T17:58:56Z</time>
      </trkpt>
      <trkpt lat="46.00305" lon="4.20178">
        <ele>448</ele>
        <time>2026-02-01T17:59:13Z</time>
      </trkpt>
      <trkpt lat="46.00295" lon="4.20173">
        <ele>448</ele>
        <time>2026-02-01T17:59:27Z</time>
      </trkpt>
      <trkpt lat="46.00283" lon="4.20171">
        <ele>449</ele>
        <time>2026-02-01T17:59:43Z</time>
      </trkpt>
      <trkpt lat="46.00271" lon="4.20174">
        <ele>449</ele>
        <time>2026-02-01T17:59:59Z</time>
      </trkpt>
      <trkpt lat="46.00223" lon="4.20189">
        <ele>450</ele>
        <time>2026-02-01T18:01:05Z</time>
      </trkpt>
      <trkpt lat="46.00216" lon="4.20188">
        <ele>450</ele>
        <time>2026-02-01T18:01:14Z</time>
      </trkpt>
      <trkpt lat="46.0021" lon="4.20186">
        <ele>450</ele>
        <time>2026-02-01T18:01:23Z</time>
      </trkpt>
      <trkpt lat="46.00205" lon="4.2018">
        <ele>450</ele>
        <time>2026-02-01T18:01:31Z</time>
      </trkpt>
      <trkpt lat="46.00198" lon="4.20161">
        <ele>450</ele>
        <time>2026-02-01T18:01:51Z</time>
      </trkpt>
      <trkpt lat="46.00178" lon="4.20119">
        <ele>449</ele>
        <time>2026-02-01T18:02:38Z</time>
      </trkpt>
      <trkpt lat="46.00147" lon="4.20052">
        <ele>446</ele>
        <time>2026-02-01T18:03:53Z</time>
      </trkpt>
      <trkpt lat="46.0014" lon="4.20032">
        <ele>445</ele>
        <time>2026-02-01T18:04:14Z</time>
      </trkpt>
      <trkpt lat="46.00134" lon="4.20006">
        <ele>444</ele>
        <time>2026-02-01T18:04:39Z</time>
      </trkpt>
      <trkpt lat="46.00125" lon="4.19952">
        <ele>443</ele>
        <time>2026-02-01T18:05:31Z</time>
      </trkpt>
      <trkpt lat="46.00118" lon="4.1992">
        <ele>443</ele>
        <time>2026-02-01T18:06:02Z</time>
      </trkpt>
      <trkpt lat="46.00105" lon="4.19878">
        <ele>443</ele>
        <time>2026-02-01T18:06:44Z</time>
      </trkpt>
      <trkpt lat="46.00092" lon="4.19846">
        <ele>444</ele>
        <time>2026-02-01T18:07:19Z</time>
      </trkpt>
      <trkpt lat="46.00063" lon="4.19785">
        <ele>444</ele>
        <time>2026-02-01T18:08:27Z</time>
      </trkpt>
      <trkpt lat="46.00056" lon="4.19774">
        <ele>445</ele>
        <time>2026-02-01T18:08:41Z</time>
      </trkpt>
      <trkpt lat="46.00048" lon="4.19766">
        <ele>446</ele>
        <time>2026-02-01T18:08:54Z</time>
      </trkpt>
      <trkpt lat="46.00039" lon="4.19761">
        <ele>446</ele>
        <time>2026-02-01T18:09:07Z</time>
      </trkpt>
      <trkpt lat="46.00037" lon="4.19721">
        <ele>448</ele>
        <time>2026-02-01T18:09:44Z</time>
      </trkpt>
      <trkpt lat="46.00032" lon="4.19688">
        <ele>451</ele>
        <time>2026-02-01T18:10:15Z</time>
      </trkpt>
      <trkpt lat="46.00032" lon="4.19646">
        <ele>452</ele>
        <time>2026-02-01T18:10:54Z</time>
      </trkpt>
      <trkpt lat="46.00036" lon="4.19609">
        <ele>451</ele>
        <time>2026-02-01T18:11:29Z</time>
      </trkpt>
      <trkpt lat="46.00031" lon="4.19581">
        <ele>452</ele>
        <time>2026-02-01T18:11:56Z</time>
      </trkpt>
      <trkpt lat="46.00009" lon="4.1954">
        <ele>452</ele>
        <time>2026-02-01T18:12:44Z</time>
      </trkpt>
      <trkpt lat="45.99987" lon="4.19503">
        <ele>450</ele>
        <time>2026-02-01T18:13:29Z</time>
      </trkpt>
      <trkpt lat="45.99969" lon="4.19482">
        <ele>450</ele>
        <time>2026-02-01T18:14:00Z</time>
      </trkpt>
      <trkpt lat="45.99943" lon="4.19444">
        <ele>450</ele>
        <time>2026-02-01T18:14:49Z</time>
      </trkpt>
      <trkpt lat="45.99922" lon="4.19398">
        <ele>449</ele>
        <time>2026-02-01T18:15:40Z</time>
      </trkpt>
      <trkpt lat="45.99892" lon="4.19341">
        <ele>443</ele>
        <time>2026-02-01T18:16:47Z</time>
      </trkpt>
      <trkpt lat="45.99879" lon="4.19321">
        <ele>441</ele>
        <time>2026-02-01T18:17:12Z</time>
      </trkpt>
      <trkpt lat="45.99861" lon="4.19307">
        <ele>440</ele>
        <time>2026-02-01T18:17:39Z</time>
      </trkpt>
      <trkpt lat="45.99803" lon="4.19278">
        <ele>442</ele>
        <time>2026-02-01T18:19:01Z</time>
      </trkpt>
      <trkpt lat="45.99782" lon="4.19278">
        <ele>444</ele>
        <time>2026-02-01T18:19:29Z</time>
      </trkpt>
      <trkpt lat="45.9976" lon="4.1928">
        <ele>447</ele>
        <time>2026-02-01T18:19:59Z</time>
      </trkpt>
      <trkpt lat="45.99741" lon="4.19289">
        <ele>449</ele>
        <time>2026-02-01T18:20:26Z</time>
      </trkpt>
      <trkpt lat="45.99716" lon="4.19288">
        <ele>450</ele>
        <time>2026-02-01T18:20:59Z</time>
      </trkpt>
      <trkpt lat="45.9969" lon="4.19296">
        <ele>452</ele>
        <time>2026-02-01T18:21:34Z</time>
      </trkpt>
      <trkpt lat="45.99659" lon="4.19311">
        <ele>454</ele>
        <time>2026-02-01T18:22:18Z</time>
      </trkpt>
      <trkpt lat="45.9961" lon="4.19341">
        <ele>456</ele>
        <time>2026-02-01T18:23:29Z</time>
      </trkpt>
      <trkpt lat="45.99588" lon="4.19343">
        <ele>457</ele>
        <time>2026-02-01T18:23:58Z</time>
      </trkpt>
      <trkpt lat="45.99556" lon="4.19351">
        <ele>457</ele>
        <time>2026-02-01T18:24:42Z</time>
      </trkpt>
      <trkpt lat="45.99532" lon="4.1935">
        <ele>456</ele>
        <time>2026-02-01T18:25:14Z</time>
      </trkpt>
      <trkpt lat="45.99506" lon="4.19355">
        <ele>456</ele>
        <time>2026-02-01T18:25:49Z</time>
      </trkpt>
      <trkpt lat="45.99482" lon="4.19344">
        <ele>454</ele>
        <time>2026-02-01T18:26:22Z</time>
      </trkpt>
      <trkpt lat="45.99442" lon="4.19329">
        <ele>450</ele>
        <time>2026-02-01T18:27:18Z</time>
      </trkpt>
      <trkpt lat="45.99402" lon="4.19323">
        <ele>445</ele>
        <time>2026-02-01T18:28:11Z</time>
      </trkpt>
      <trkpt lat="45.99358" lon="4.19307">
        <ele>438</ele>
        <time>2026-02-01T18:29:12Z</time>
      </trkpt>
      <trkpt lat="45.99323" lon="4.19302">
        <ele>433</ele>
        <time>2026-02-01T18:29:59Z</time>
      </trkpt>
      <trkpt lat="45.99292" lon="4.19287">
        <ele>430</ele>
        <time>2026-02-01T18:30:42Z</time>
      </trkpt>
      <trkpt lat="45.99268" lon="4.19254">
        <ele>427</ele>
        <time>2026-02-01T18:31:27Z</time>
      </trkpt>
      <trkpt lat="45.99244" lon="4.19236">
        <ele>423</ele>
        <time>2026-02-01T18:32:03Z</time>
      </trkpt>
      <trkpt lat="45.99215" lon="4.19221">
        <ele>419</ele>
        <time>2026-02-01T18:32:44Z</time>
      </trkpt>
      <trkpt lat="45.99169" lon="4.19194">
        <ele>413</ele>
        <time>2026-02-01T18:33:50Z</time>
      </trkpt>
      <trkpt lat="45.99194" lon="4.19184">
        <ele>415</ele>
        <time>2026-02-01T18:34:25Z</time>
      </trkpt>
      <trkpt lat="45.99217" lon="4.19148">
        <ele>416</ele>
        <time>2026-02-01T18:35:10Z</time>
      </trkpt>
      <trkpt lat="45.99264" lon="4.19099">
        <ele>417</ele>
        <time>2026-02-01T18:36:28Z</time>
      </trkpt>
      <trkpt lat="45.99272" lon="4.19089">
        <ele>417</ele>
        <time>2026-02-01T18:36:42Z</time>
      </trkpt>
      <trkpt lat="45.99295" lon="4.19045">
        <ele>415</ele>
        <time>2026-02-01T18:37:33Z</time>
      </trkpt>
      <trkpt lat="45.99304" lon="4.19032">
        <ele>414</ele>
        <time>2026-02-01T18:37:50Z</time>
      </trkpt>
      <trkpt lat="45.99315" lon="4.19008">
        <ele>413</ele>
        <time>2026-02-01T18:38:17Z</time>
      </trkpt>
      <trkpt lat="45.99348" lon="4.18958">
        <ele>411</ele>
        <time>2026-02-01T18:39:20Z</time>
      </trkpt>
      <trkpt lat="45.9938" lon="4.18919">
        <ele>409</ele>
        <time>2026-02-01T18:40:16Z</time>
      </trkpt>
      <trkpt lat="45.99433" lon="4.18865">
        <ele>404</ele>
        <time>2026-02-01T18:41:43Z</time>
      </trkpt>
      <trkpt lat="45.99475" lon="4.18833">
        <ele>399</ele>
        <time>2026-02-01T18:42:47Z</time>
      </trkpt>
      <trkpt lat="45.99485" lon="4.18829">
        <ele>398</ele>
        <time>2026-02-01T18:43:00Z</time>
      </trkpt>
      <trkpt lat="45.99511" lon="4.18826">
        <ele>396</ele>
        <time>2026-02-01T18:43:35Z</time>
      </trkpt>
      <trkpt lat="45.99547" lon="4.18817">
        <ele>391</ele>
        <time>2026-02-01T18:44:24Z</time>
      </trkpt>
      <trkpt lat="45.9955" lon="4.18811">
        <ele>390</ele>
        <time>2026-02-01T18:44:31Z</time>
      </trkpt>
      <trkpt lat="45.99529" lon="4.18788">
        <ele>389</ele>
        <time>2026-02-01T18:45:06Z</time>
      </trkpt>
      <trkpt lat="45.99513" lon="4.18774">
        <ele>388</ele>
        <time>2026-02-01T18:45:31Z</time>
      </trkpt>
      <trkpt lat="45.99501" lon="4.18759">
        <ele>386</ele>
        <time>2026-02-01T18:45:52Z</time>
      </trkpt>
      <trkpt lat="45.99468" lon="4.18741">
        <ele>386</ele>
        <time>2026-02-01T18:46:39Z</time>
      </trkpt>
      <trkpt lat="45.99418" lon="4.18711">
        <ele>385</ele>
        <time>2026-02-01T18:47:52Z</time>
      </trkpt>
      <trkpt lat="45.99394" lon="4.18689">
        <ele>381</ele>
        <time>2026-02-01T18:48:30Z</time>
      </trkpt>
      <trkpt lat="45.99388" lon="4.18685">
        <ele>380</ele>
        <time>2026-02-01T18:48:38Z</time>
      </trkpt>
      <trkpt lat="45.99382" lon="4.18683">
        <ele>379</ele>
        <time>2026-02-01T18:48:47Z</time>
      </trkpt>
      <trkpt lat="45.9935" lon="4.18679">
        <ele>377</ele>
        <time>2026-02-01T18:49:29Z</time>
      </trkpt>
      <trkpt lat="45.9934" lon="4.18676">
        <ele>376</ele>
        <time>2026-02-01T18:49:43Z</time>
      </trkpt>
      <trkpt lat="45.99324" lon="4.18668">
        <ele>374</ele>
        <time>2026-02-01T18:50:06Z</time>
      </trkpt>
      <trkpt lat="45.9927" lon="4.18631">
        <ele>362</ele>
        <time>2026-02-01T18:51:25Z</time>
      </trkpt>
      <trkpt lat="45.99231" lon="4.18624">
        <ele>357</ele>
        <time>2026-02-01T18:52:18Z</time>
      </trkpt>
      <trkpt lat="45.99216" lon="4.18618">
        <ele>355</ele>
        <time>2026-02-01T18:52:39Z</time>
      </trkpt>
      <trkpt lat="45.99179" lon="4.18598">
        <ele>348</ele>
        <time>2026-02-01T18:53:31Z</time>
      </trkpt>
      <trkpt lat="45.99133" lon="4.18591">
        <ele>346</ele>
        <time>2026-02-01T18:54:33Z</time>
      </trkpt>
      <trkpt lat="45.99124" lon="4.18588">
        <ele>345</ele>
        <time>2026-02-01T18:54:46Z</time>
      </trkpt>
      <trkpt lat="45.99038" lon="4.18549">
        <ele>342</ele>
        <time>2026-02-01T18:56:46Z</time>
      </trkpt>
      <trkpt lat="45.99008" lon="4.18531">
        <ele>340</ele>
        <time>2026-02-01T18:57:29Z</time>
      </trkpt>
      <trkpt lat="45.98998" lon="4.18517">
        <ele>338</ele>
        <time>2026-02-01T18:57:48Z</time>
      </trkpt>
      <trkpt lat="45.98989" lon="4.185">
        <ele>336</ele>
        <time>2026-02-01T18:58:08Z</time>
      </trkpt>
      <trkpt lat="45.98983" lon="4.18484">
        <ele>335</ele>
        <time>2026-02-01T18:58:24Z</time>
      </trkpt>
      <trkpt lat="45.98993" lon="4.18482">
        <ele>335</ele>
        <time>2026-02-01T18:58:38Z</time>
      </trkpt>
      <trkpt lat="45.99005" lon="4.18476">
        <ele>335</ele>
        <time>2026-02-01T18:58:55Z</time>
      </trkpt>
      <trkpt lat="45.99032" lon="4.18461">
        <ele>335</ele>
        <time>2026-02-01T18:59:34Z</time>
      </trkpt>
      <trkpt lat="45.99057" lon="4.18439">
        <ele>336</ele>
        <time>2026-02-01T19:00:13Z</time>
      </trkpt>
      <trkpt lat="45.99066" lon="4.18429">
        <ele>336</ele>
        <time>2026-02-01T19:00:28Z</time>
      </trkpt>
      <trkpt lat="45.9908" lon="4.18425">
        <ele>337</ele>
        <time>2026-02-01T19:00:47Z</time>
      </trkpt>
      <trkpt lat="45.99224" lon="4.18341">
        <ele>357</ele>
        <time>2026-02-01T19:04:14Z</time>
      </trkpt>
      <trkpt lat="45.99235" lon="4.18337">
        <ele>359</ele>
        <time>2026-02-01T19:04:29Z</time>
      </trkpt>
      <trkpt lat="45.99249" lon="4.18335">
        <ele>362</ele>
        <time>2026-02-01T19:04:48Z</time>
      </trkpt>
      <trkpt lat="45.99254" lon="4.18329">
        <ele>362</ele>
        <time>2026-02-01T19:04:57Z</time>
      </trkpt>
      <trkpt lat="45.99268" lon="4.18309">
        <ele>363</ele>
        <time>2026-02-01T19:05:23Z</time>
      </trkpt>
      <trkpt lat="45.99285" lon="4.18279">
        <ele>365</ele>
        <time>2026-02-01T19:05:59Z</time>
      </trkpt>
      <trkpt lat="45.99312" lon="4.18231">
        <ele>370</ele>
        <time>2026-02-01T19:06:56Z</time>
      </trkpt>
      <trkpt lat="45.99331" lon="4.182">
        <ele>374</ele>
        <time>2026-02-01T19:07:35Z</time>
      </trkpt>
      <trkpt lat="45.99355" lon="4.18169">
        <ele>378</ele>
        <time>2026-02-01T19:08:18Z</time>
      </trkpt>
      <trkpt lat="45.99357" lon="4.18164">
        <ele>378</ele>
        <time>2026-02-01T19:08:23Z</time>
      </trkpt>
      <trkpt lat="45.99358" lon="4.18155">
        <ele>379</ele>
        <time>2026-02-01T19:08:31Z</time>
      </trkpt>
      <trkpt lat="45.99347" lon="4.18071">
        <ele>380</ele>
        <time>2026-02-01T19:09:51Z</time>
      </trkpt>
      <trkpt lat="45.99346" lon="4.18056">
        <ele>381</ele>
        <time>2026-02-01T19:10:05Z</time>
      </trkpt>
      <trkpt lat="45.99349" lon="4.18037">
        <ele>382</ele>
        <time>2026-02-01T19:10:23Z</time>
      </trkpt>
      <trkpt lat="45.99359" lon="4.17986">
        <ele>387</ele>
        <time>2026-02-01T19:11:12Z</time>
      </trkpt>
      <trkpt lat="45.9936" lon="4.17978">
        <ele>387</ele>
        <time>2026-02-01T19:11:19Z</time>
      </trkpt>
      <trkpt lat="45.99359" lon="4.17935">
        <ele>387</ele>
        <time>2026-02-01T19:11:59Z</time>
      </trkpt>
      <trkpt lat="45.99363" lon="4.17885">
        <ele>390</ele>
        <time>2026-02-01T19:12:46Z</time>
      </trkpt>
      <trkpt lat="45.99364" lon="4.17879">
        <ele>390</ele>
        <time>2026-02-01T19:12:52Z</time>
      </trkpt>
      <trkpt lat="45.9937" lon="4.17863">
        <ele>391</ele>
        <time>2026-02-01T19:13:09Z</time>
      </trkpt>
      <trkpt lat="45.99368" lon="4.17859">
        <ele>391</ele>
        <time>2026-02-01T19:13:13Z</time>
      </trkpt>
      <trkpt lat="45.99365" lon="4.17835">
        <ele>392</ele>
        <time>2026-02-01T19:13:36Z</time>
      </trkpt>
      <trkpt lat="45.99363" lon="4.17818">
        <ele>392</ele>
        <time>2026-02-01T19:13:52Z</time>
      </trkpt>
      <trkpt lat="45.99361" lon="4.17814">
        <ele>392</ele>
        <time>2026-02-01T19:13:56Z</time>
      </trkpt>
      <trkpt lat="45.99357" lon="4.17809">
        <ele>392</ele>
        <time>2026-02-01T19:14:03Z</time>
      </trkpt>
      <trkpt lat="45.99343" lon="4.178">
        <ele>391</ele>
        <time>2026-02-01T19:14:24Z</time>
      </trkpt>
      <trkpt lat="45.99335" lon="4.17794">
        <ele>390</ele>
        <time>2026-02-01T19:14:36Z</time>
      </trkpt>
      <trkpt lat="45.99331" lon="4.17789">
        <ele>390</ele>
        <time>2026-02-01T19:14:43Z</time>
      </trkpt>
      <trkpt lat="45.99315" lon="4.17763">
        <ele>391</ele>
        <time>2026-02-01T19:15:15Z</time>
      </trkpt>
      <trkpt lat="45.9928" lon="4.1772">
        <ele>391</ele>
        <time>2026-02-01T19:16:16Z</time>
      </trkpt>
      <trkpt lat="45.99303" lon="4.17708">
        <ele>392</ele>
        <time>2026-02-01T19:16:49Z</time>
      </trkpt>
      <trkpt lat="45.99323" lon="4.17701">
        <ele>393</ele>
        <time>2026-02-01T19:17:17Z</time>
      </trkpt>
      <trkpt lat="45.99334" lon="4.177">
        <ele>394</ele>
        <time>2026-02-01T19:17:31Z</time>
      </trkpt>
      <trkpt lat="45.99345" lon="4.177">
        <ele>395</ele>
        <time>2026-02-01T19:17:46Z</time>
      </trkpt>
      <trkpt lat="45.99355" lon="4.17701">
        <ele>396</ele>
        <time>2026-02-01T19:17:59Z</time>
      </trkpt>
      <trkpt lat="45.99369" lon="4.17706">
        <ele>398</ele>
        <time>2026-02-01T19:18:19Z</time>
      </trkpt>
      <trkpt lat="45.99374" lon="4.17689">
        <ele>399</ele>
        <time>2026-02-01T19:18:36Z</time>
      </trkpt>
      <trkpt lat="45.99378" lon="4.17683">
        <ele>400</ele>
        <time>2026-02-01T19:18:43Z</time>
      </trkpt>
      <trkpt lat="45.99384" lon="4.17677">
        <ele>401</ele>
        <time>2026-02-01T19:18:53Z</time>
      </trkpt>
      <trkpt lat="45.994" lon="4.17689">
        <ele>402</ele>
        <time>2026-02-01T19:19:17Z</time>
      </trkpt>
      <trkpt lat="45.99425" lon="4.17696">
        <ele>405</ele>
        <time>2026-02-01T19:19:51Z</time>
      </trkpt>
      <trkpt lat="45.995" lon="4.17709">
        <ele>415</ele>
        <time>2026-02-01T19:21:32Z</time>
      </trkpt>
      <trkpt lat="45.99514" lon="4.17714">
        <ele>417</ele>
        <time>2026-02-01T19:21:51Z</time>
      </trkpt>
      <trkpt lat="45.9952" lon="4.17718">
        <ele>418</ele>
        <time>2026-02-01T19:22:00Z</time>
      </trkpt>
      <trkpt lat="45.99529" lon="4.17722">
        <ele>419</ele>
        <time>2026-02-01T19:22:13Z</time>
      </trkpt>
      <trkpt lat="45.99591" lon="4.17774">
        <ele>426</ele>
        <time>2026-02-01T19:23:48Z</time>
      </trkpt>
      <trkpt lat="45.99619" lon="4.17799">
        <ele>427</ele>
        <time>2026-02-01T19:24:32Z</time>
      </trkpt>
      <trkpt lat="45.99639" lon="4.17816">
        <ele>429</ele>
        <time>2026-02-01T19:25:03Z</time>
      </trkpt>
      <trkpt lat="45.9965" lon="4.17828">
        <ele>429</ele>
        <time>2026-02-01T19:25:22Z</time>
      </trkpt>
      <trkpt lat="45.99679" lon="4.17866">
        <ele>432</ele>
        <time>2026-02-01T19:26:14Z</time>
      </trkpt>
      <trkpt lat="45.99686" lon="4.17874">
        <ele>432</ele>
        <time>2026-02-01T19:26:26Z</time>
      </trkpt>
      <trkpt lat="45.99702" lon="4.17884">
        <ele>433</ele>
        <time>2026-02-01T19:26:49Z</time>
      </trkpt>
      <trkpt lat="45.99712" lon="4.17887">
        <ele>434</ele>
        <time>2026-02-01T19:27:03Z</time>
      </trkpt>
      <trkpt lat="45.99726" lon="4.17888">
        <ele>435</ele>
        <time>2026-02-01T19:27:22Z</time>
      </trkpt>
      <trkpt lat="45.99736" lon="4.17894">
        <ele>435</ele>
        <time>2026-02-01T19:27:36Z</time>
      </trkpt>
      <trkpt lat="45.99802" lon="4.17832">
        <ele>437</ele>
        <time>2026-02-01T19:29:21Z</time>
      </trkpt>
      <trkpt lat="45.99825" lon="4.17809">
        <ele>438</ele>
        <time>2026-02-01T19:29:59Z</time>
      </trkpt>
      <trkpt lat="45.99864" lon="4.1777">
        <ele>438</ele>
        <time>2026-02-01T19:31:02Z</time>
      </trkpt>
      <trkpt lat="45.99838" lon="4.17715">
        <ele>438</ele>
        <time>2026-02-01T19:32:04Z</time>
      </trkpt>
      <trkpt lat="45.99845" lon="4.17708">
        <ele>438</ele>
        <time>2026-02-01T19:32:15Z</time>
      </trkpt>
      <trkpt lat="45.99851" lon="4.17701">
        <ele>438</ele>
        <time>2026-02-01T19:32:25Z</time>
      </trkpt>
      <trkpt lat="45.99855" lon="4.1769">
        <ele>438</ele>
        <time>2026-02-01T19:32:37Z</time>
      </trkpt>
      <trkpt lat="45.99875" lon="4.17673">
        <ele>437</ele>
        <time>2026-02-01T19:33:08Z</time>
      </trkpt>
      <trkpt lat="45.9985" lon="4.1761">
        <ele>436</ele>
        <time>2026-02-01T19:34:15Z</time>
      </trkpt>
      <trkpt lat="45.99907" lon="4.17643">
        <ele>435</ele>
        <time>2026-02-01T19:35:37Z</time>
      </trkpt>
    </trkseg>
  </trk>
</gpx>